Location: Dannhausen
(51.8650°N, 10.1026°E)
Time: 09:19:05
(UTC+00:00)

Cosmos 2369 - Pass Details

Date: 09 April 2020
Orbit: 840 x 855 km, 71.0° (Epoch: 24 May)

Event Time Altitude Azimuth Distance (km) Brightness Sun altitude
Rises 21:05:36 0° 327° (NNW) 3,407 8.3 -23.5°
Reaches altitude 10° 21:08:04 10° 324° (NW) 2,469 7.2 -23.7°
Maximum altitude 21:13:38 61° 246° (WSW) 956 3.9 -24.2°
Enters shadow 21:14:52 49° 197° (SSW) 1,081 3.9 -24.3°
